DH0GMA Weather Reports


Display with metric or nautical units.
time (UTC)temp
F
wind
direction
speed
MPH
gust
MPH
rain 1hr
in
rain 24hr
in
rain mn
in
humidity
%
barometer
mb
20260506090628 60 253 1.0 2.0 0.00 0.06 0.00 73 1005.9
20260506085628 59 253 0.0 2.0 0.00 0.06 0.00 77 1005.9
20260506084627 58 253 1.0 2.0 0.00 0.06 0.00 77 1005.8
20260506083627 58 253 0.0 1.0 0.00 0.06 0.00 80 1005.8
20260506082628 57 253 1.0 3.0 0.00 0.06 0.00 80 1005.9
20260506081628 57 254 1.0 2.0 0.00 0.06 0.00 81 1005.9
20260506080628 57 211 0.0 2.0 0.00 0.06 0.00 82 1005.9
20260506072628 56 176 1.0 2.0 0.00 0.06 0.00 83 1006.3
20260506071627 55 176 1.0 3.0 0.00 0.06 0.00 84 1006.5
20260506070627 55 174 0.0 2.0 0.00 0.06 0.00 85 1006.3
20260506061627 53 110 0.0 3.0 0.00 0.06 0.00 89 1006.1
20260506060627 53 60 0.0 2.0 0.00 0.06 0.00 90 1006.2
20260506050628 49 180 0.0 0.0 0.00 0.06 0.00 92 1006.3
20260506044628 48 180 0.0 0.0 0.00 0.06 0.00 92 1006.5
20260506043628 48 180 0.0 0.0 0.00 0.06 0.00 91 1006.5
20260506042628 48 180 0.0 0.0 0.00 0.06 0.00 91 1006.6
20260506041628 49 180 0.0 0.0 0.00 0.06 0.00 91 1006.6
20260506040627 49 180 0.0 0.0 0.00 0.06 0.00 91 1006.9
20260506035627 49 180 0.0 0.0 0.00 0.06 0.00 91 1006.8
20260506034627 50 180 0.0 0.0 0.00 0.06 0.00 91 1006.9
20260506033627 50 180 0.0 2.0 0.00 0.06 0.00 91 1007.0
20260506032627 50 180 1.0 2.0 0.00 0.06 0.00 91 1007.1
20260506031627 50 180 0.0 2.0 0.00 0.06 0.00 91 1007.1
20260506030627 50 179 1.0 2.0 0.00 0.06 0.00 92 1007.2
20260506025627 50 181 0.0 2.0 0.00 0.06 0.00 92 1007.2
20260506024627 50 178 1.0 2.0 0.00 0.06 0.00 92 1007.3
20260506023627 49 178 1.0 2.0 0.00 0.06 0.00 92 1007.5
20260506022628 49 175 0.0 0.0 0.00 0.06 0.00 91 1007.4
20260506021628 49 175 0.0 0.0 0.00 0.06 0.00 92 1007.6
20260506020628 49 175 0.0 0.0 0.00 0.06 0.00 91 1007.6
20260506015628 49 175 0.0 0.0 0.00 0.06 0.00 91 1007.4
20260506014628 50 175 0.0 0.0 0.00 0.06 0.00 91 1007.5
20260506013628 50 175 0.0 1.0 0.00 0.06 0.00 91 1007.4
20260506012627 50 175 0.0 1.0 0.00 0.06 0.00 91 1007.6
20260506011627 50 174 0.0 2.0 0.00 0.06 0.00 91 1007.9
20260506010627 50 187 1.0 3.0 0.00 0.06 0.00 91 1008.1
20260506005627 50 181 3.0 4.0 0.00 0.06 0.00 91 1007.9
20260506004627 50 200 1.0 3.0 0.00 0.06 0.00 91 1007.8
20260506003628 50 198 1.0 2.0 0.00 0.06 0.00 91 1007.7
20260506002628 50 201 1.0 3.0 0.00 0.06 0.00 91 1007.9
20260506001627 50 195 0.0 2.0 0.00 0.06 0.00 91 1007.9
20260506000627 50 188 1.0 4.0 0.00 0.06 0.00 91 1008.0
20260505235627 50 192 2.0 6.0 0.00 0.06 0.00 91 1007.9
20260505234627 50 184 2.0 4.0 0.00 0.06 0.00 91 1008.2
20260505233627 51 185 1.0 2.0 0.00 0.06 0.00 91 1008.2
20260505232627 51 202 1.0 2.0 0.00 0.06 0.00 90 1008.4
20260505231627 51 204 1.0 2.0 0.00 0.06 0.00 90 1008.4
20260505230627 51 199 0.0 2.0 0.00 0.06 0.00 89 1008.5
20260505225627 51 200 1.0 2.0 0.00 0.06 0.00 89 1008.5
20260505224627 51 198 1.0 3.0 0.00 0.06 0.00 88 1008.4
20260505223627 52 194 1.0 3.0 0.00 0.06 0.00 88 1008.6
20260505222626 52 185 0.0 2.0 0.00 0.06 0.00 87 1008.5
20260505221626 52 183 2.0 4.0 0.00 0.06 0.00 87 1008.4
20260505220628 53 198 1.0 3.0 0.00 0.06 0.00 86 1008.3
20260505215628 53 198 1.0 3.0 0.00 0.06 0.06 86 1008.4
20260505214628 53 251 1.0 4.0 0.00 0.06 0.06 87 1008.4
20260505213628 54 168 2.0 6.0 0.00 0.06 0.06 87 1008.3
20260505212628 54 158 3.0 4.0 0.00 0.06 0.06 86 1008.4
20260505211628 54 244 2.0 4.0 0.00 0.06 0.06 86 1008.4
20260505210627 54 177 0.0 4.0 0.00 0.06 0.06 85 1008.5
20260505205627 55 266 2.0 5.0 0.00 0.06 0.06 85 1008.3
20260505204627 55 249 2.0 6.0 0.00 0.06 0.06 85 1008.3
20260505203627 55 227 2.0 5.0 0.00 0.06 0.06 84 1008.3
20260505202627 56 227 3.0 8.0 0.00 0.06 0.06 83 1008.3
20260505201627 56 185 2.0 7.0 0.00 0.06 0.06 83 1008.4
20260505200627 56 199 4.0 8.0 0.00 0.06 0.06 82 1008.4
20260505195627 57 237 3.0 7.0 0.00 0.06 0.06 82 1008.3
20260505194627 57 184 4.0 9.0 0.00 0.06 0.06 80 1008.3
20260505193626 58 191 4.0 8.0 0.00 0.06 0.06 77 1008.3
20260505192626 59 258 3.0 9.0 0.00 0.06 0.06 76 1008.1
20260505191626 60 223 3.0 11.0 0.00 0.06 0.06 75 1007.8
20260505190626 60 147 3.0 7.0 0.00 0.06 0.06 74 1007.5
20260505185628 60 150 1.0 4.0 0.00 0.06 0.06 73 1007.1
20260505184628 60 232 1.0 7.0 0.00 0.06 0.06 72 1007.1
20260505183628 61 130 2.0 5.0 0.00 0.06 0.06 71 1007.0
20260505182628 61 242 1.0 5.0 0.00 0.06 0.06 70 1007.0
20260505181628 61 222 1.0 5.0 0.00 0.06 0.06 70 1006.9
20260505180627 62 223 1.0 2.0 0.00 0.06 0.06 70 1006.7
20260505175627 62 218 0.0 0.0 0.00 0.07 0.06 69 1006.6
20260505174627 62 201 0.0 2.0 0.00 0.07 0.06 68 1006.6
20260505173627 62 245 3.0 4.0 0.00 0.07 0.06 67 1006.6
20260505172627 62 264 1.0 4.0 0.00 0.07 0.06 67 1006.5
20260505171627 62 196 3.0 5.0 0.00 0.07 0.06 67 1006.5
20260505170627 63 251 2.0 3.0 0.00 0.07 0.06 67 1006.4
20260505165628 64 227 3.0 5.0 0.00 0.11 0.06 65 1006.3
20260505164628 64 289 0.0 3.0 0.00 0.11 0.06 64 1006.3
20260505163627 64 280 0.0 2.0 0.00 0.11 0.06 63 1006.2
20260505162627 65 280 0.0 3.0 0.00 0.11 0.06 64 1006.1
20260505161627 65 232 1.0 2.0 0.00 0.11 0.06 65 1006.3
20260505160627 63 227 0.0 3.0 0.00 0.11 0.06 68 1006.4
20260505152627 64 269 1.0 3.0 0.00 0.11 0.06 68 1006.5
20260505151627 64 295 1.0 4.0 0.01 0.11 0.06 67 1006.4
20260505150626 64 333 2.0 4.0 0.06 0.11 0.06 69 1006.3
20260505140628 62 294 1.0 4.0 0.00 0.06 0.01 70 1006.8
20260505124627 62 172 1.0 3.0 0.00 0.01 0.00 75 1007.2
20260505123628 62 162 0.0 2.0 0.00 0.01 0.00 75 1007.2
20260505122628 62 158 1.0 4.0 0.00 0.01 0.00 76 1007.4
20260505121628 62 159 2.0 4.0 0.00 0.01 0.00 73 1007.5
20260505120627 63 188 4.0 6.0 0.00 0.01 0.00 69 1007.5
20260505115627 64 132 1.0 7.0 0.00 0.01 0.00 65 1007.3
20260505114627 64 202 1.0 6.0 0.00 0.01 0.00 64 1007.3
20260505113627 65 156 3.0 4.0 0.00 0.01 0.00 65 1007.1
20260505112627 64 183 1.0 3.0 0.00 0.01 0.00 67 1007.2
20260505111628 64 292 1.0 3.0 0.00 0.01 0.00 68 1006.9
20260505110628 64 284 1.0 2.0 0.00 0.01 0.00 69 1006.8
20260505101627 64 260 1.0 3.0 0.00 0.01 0.00 71 1007.0
20260505100627 64 268 1.0 3.0 0.00 0.01 0.00 72 1007.3
20260505095627 64 299 1.0 3.0 0.00 0.01 0.00 70 1007.2
20260505094627 63 266 0.0 2.0 0.00 0.01 0.00 72 1007.3
20260505093627 63 259 0.0 2.0 0.00 0.01 0.00 72 1007.4
20260505092626 63 258 1.0 3.0 0.00 0.01 0.00 72 1007.5
20260505091626 63 259 0.0 3.0 0.00 0.01 0.00 72 1007.5